SCP
0 0 0 0 0 0 0 0 0 0 0 0 0 0 0 0 0 -0 0 0 0 0 0 0 0 -0 -0 -0 -0 -0 0 0 0 0 0 0 0 0 0 0 0 0 0 0
0 0 0 0 0 0 0 0 0 0 -0 0 0 -0 0 0 0 0 0 0 0 0 0 0 0 0 0 0 -0 0 -0 0 0 0 0 0 0 0 0 0 0 0 0 0
0 -0 0 0 0 0 0 0 0 -0 0 0 -0 -0 -0 -0 -0 -0 0 0 0 0 0 0 -0 -0 0 0 0 0 -0 0 0 0 0 0 0 0 0 0 0 0 0 0
-0 -0 0 0 0 0 0 0 0 0 0 0 0 -0 -0 -0 0 -0 0 0 0 0 0 -0 -0 -0 0 0 0 0 0 0 0 0 0 0 0 0 0 0 0 0 0 0
-0 0 0 0 0 0 0 0 0 -0 0 0 -0 0 -0 0 -0 0 0 0 0 0 0 0 0 0 0 0 0 0 0 0 0 0 0 0 0 0 0 0 0 0 0 0
0 -0 0 0 0 0 0 0 0 0 -0 -0 -0 -0 0 0 0 -0 -0 0 0 0 0 0 0 0 0 0 0 0 0 0 0 0 0 0 0 0 0 0 0 0 0 0
0 -0 0 0 0 0 0 0 0 0 0 0 -0 -0 -0 -0 -0 0 0 0 0 0 0 -0 -0 0 0 0 0 0 0 0 0 0 0 0 0 0 0 0 0 0 0 0
0 -0 0 0 0 0 0 0 0 0 -0 -0 -0 0 0 -0 0 -0 -0 0 0 0 -0 0 -0 0 0 0 0 0 0 0 0 0 0 0 0 0 0 0 0 0 0 0
-0 -0 0 0 0 0 -0 0 0 0 -0 -0 -0 -0 -0 -0 0 -0 0 0 0 -0 -0 0 0 0 0 0 0 0 0 0 0 0 0 0 0 0 0 0 0 0 0 0
-0 0 0 0 -0 0 0 0 0 0 -0 -0 -0 -0 0 0 0 0 0 0 -0 -0 0 0 0 0 0 0 0 0 0 0 0 0 0 0 0 0 0 0 0 0 0 0
0 0 0 0 -0 0 0 0 0 0 -0 -0 -0 -0 -0 -0 0 0 0 -0 -0 0 -0 0 0 0 0 0 0 0 0 0 0 0 0 0 0 0 0 0 0 0 0 0
0 0 0 -0 0 0 0 0 0 0 0 -0 -0 -0 -0 -0 0 -0 -0 0 0 -0 0 0 0 -0 0 0 0 0 0 0 0 0 0 0 0 0 0 0 0 0 0 -0
0 0 0 -0 -0 -0 -0 0 -0 0 -0 -0 -0 -0 -0 -0 0 0 -0 -0 0 0 -0 0 0 0 0 0 0 0 0 0 0 0 0 0 0 0 0 0 0 0 0 0
0 0 0 -0 -0 0 -0 -0 -0 0 -0 0 -0 -0 0 0 -0 0 -0 0 0 0 0 -0 0 0 0 0 0 0 0 0 0 0 0 0 0 0 0 0 0 0 0 0
0 0 -0 -0 -0 0 -0 -0 -0 0 0 0 0 0 0 0 -0 -0 -0 -0 0 0 0 0 0 0 0 0 0 0 0 0 0 0 0 0 0 0 0 0 0 0 0 0
-0 0 -0 -0 0 -0 0 0 -0 -0 -0 0 0 0 0 -0 -0 0 -0 0 0 0 0 0 0 0 0 0 0 0 0 0 0 0 0 0 0 0 0 0 0 0 0 0
0 0 -0 -0 0 0 0 0 0 -0 -0 0 0 0 0 -0 0 0 0 -0 0 0 0 0 0 0 0 0 0 0 0 0 0 0 0 0 0 0 0 0 0 0 0 0
0 -0 -0 -0 -0 0 0 0 -0 -0 -0 0 0 0 -0 0 0 0 -0 -0 -0 0 0 0 0 0 0 0 0 0 0 0 0 0 0 0 0 0 0 0 0 0 0 0
-0 0 0 -0 0 0 0 0 0 0 0 0 0 0 0 0 0 0 0 0 0 0 0 0 0 0 0 0 0 0 0 0 0 0 -0 0 0 0 0 0 0 0 0 0
-0 -0 -0 -0 0 0 0 0 -0 -0 0 0 0 0 0 -0 0 0 0 0 0 0 0 0 0 0 0 0 0 -0 0 0 -0 -0 0 0 0 0 0 0 0 0 0 0
0 -0 -0 -0 0 0 0 0 0 0 0 0 0 0 0 0 0 0 0 0 -0 0 0 0 -0 0 0 0 -0 -0 -0 -0 -0 -0 -0 -0 -0 0 0 0 0 0 0 0
-0 0 -0 -0 -0 0 0 0 0 0 0 0 0 0 0 0 0 0 -0 -0 -0 -0 0 -0 -0 -0 -0 -0 -0 -0 -0 -0 -0 -0 -0 0 0 0 -0 -0 0 0 0 0
0 0 0 0 0 0 0 0 0 0 0 0 0 0 0 0 0 0 -0 -0 -0 0 -0 -0 -0 -0 -0 -0 -0 -0 -0 -0 -0 -0 -0 -0 -0 -0 -0 -0 -0 -0 0 0
-0 0 0 0 0 -0 0 0 0 0 0 0 0 0 0 0 -0 0 -0 0 0 -0 -0 -0 -0 -0 -0 -0 -0 -0 -0 -0 -0 -0 -0 -0 -0 -0 -0 -0 -0 0 0 0
-0 0 0 0 0 0 0 0 0 0 0 0 0 0 0 0 0 0 0 -0 -0 -0 -0 -0 0 0 -0 -0 -0 -0 -0 -0 -0 -0 -0 -0 -0 0 0 0 0 0 0 0
0 0 0 0 0 0 0 0 0 0 0 0 0 0 0 0 0 0 0 0 0 -0 0 0 0 0 -0 -0 -0 -0 -0 -0 -0 0 0 0 0 0 0 0 0 0 0 0
0 0 0 0 0 0 0 0 0 0 0 0 0 0 0 0 0 0 0 -0 0 0 0 0 0 0 -0 -0 -0 -0 -0 0 0 0 0 0 0 0 0 0 0 0 0 0
Wind_Speed_500mb
64 68 69 71 73 67 67 27 12 25 28 11 12 15 7 7 14 24 23 26 33 31 23 29 24 31 33 14 8 8 13 5 7 16 9 8 29 14 28 14 14 9 6 14
68 69 71 71 65 63 58 19 34 23 18 11 16 23 13 13 14 21 9 10 11 8 18 10 15 23 12 25 12 9 8 8 9 1 2 1 12 14 23 5 5 22 16 11
69 70 73 68 65 65 45 12 9 16 20 26 26 30 25 16 20 24 19 21 24 20 17 20 19 27 16 8 18 25 9 8 11 12 2 6 17 29 26 21 13 16 20 6
68 70 68 67 62 53 33 6 9 14 12 18 28 33 24 33 13 13 8 7 17 22 10 8 17 26 22 8 13 11 8 9 9 3 1 7 4 23 32 31 37 20 23 27
70 72 68 64 55 47 32 11 14 16 35 36 27 29 10 25 25 7 12 20 22 16 16 20 31 34 23 19 11 8 7 4 7 6 4 7 9 18 31 39 37 35 4 8
72 71 66 65 53 44 31 25 34 21 23 24 17 16 11 14 11 16 25 18 18 17 21 17 33 35 25 16 10 12 6 7 8 4 1 4 13 22 26 25 26 32 31 14
72 73 71 62 52 43 39 37 36 21 17 17 25 33 35 35 29 26 31 23 9 8 22 28 17 10 5 0 6 5 4 7 3 5 5 9 5 3 3 25 2 16 12 4
78 71 69 57 51 44 40 36 34 18 15 22 31 28 22 33 26 25 27 35 23 22 15 8 10 8 7 3 7 7 4 6 6 7 10 6 4 5 6 3 3 8 12 9
74 71 64 55 54 51 40 37 34 29 11 6 11 21 31 12 14 15 7 17 17 11 6 5 6 2 5 2 1 2 3 5 3 4 7 4 6 9 9 6 2 12 6 13
74 68 60 59 62 53 37 35 28 25 13 31 14 9 11 10 8 9 9 13 8 10 5 6 4 1 5 2 6 6 3 4 3 1 4 7 8 9 8 2 7 6 6 14
68 62 57 61 63 38 28 25 25 26 15 33 18 16 11 12 7 9 15 14 6 5 7 5 4 4 3 2 2 5 7 6 3 0 3 5 2 2 6 5 3 4 3 8
63 55 50 46 33 7 14 19 21 19 39 17 20 19 18 14 12 11 10 13 12 10 6 2 1 2 2 4 3 2 2 7 6 9 7 2 4 2 6 4 6 10 9 7
53 45 41 33 24 14 16 18 17 23 12 17 13 14 18 15 14 14 8 6 16 12 18 6 4 3 5 3 5 2 5 7 5 6 6 10 11 6 12 16 12 12 9 2
44 38 36 29 25 21 16 14 13 21 9 8 5 12 13 13 13 18 20 31 26 29 14 5 3 4 5 6 4 7 6 11 10 3 7 5 17 21 25 19 13 11 8 5
42 37 34 28 22 18 16 16 20 13 8 10 10 16 12 13 13 14 13 17 21 13 6 3 5 2 3 2 1 6 12 8 8 5 15 12 11 29 28 25 22 14 12 9
42 35 29 23 18 15 9 7 3 11 12 8 6 6 7 6 6 10 9 7 8 7 8 4 3 3 7 3 5 4 9 12 13 12 33 28 25 15 22 23 21 16 12 13
33 29 25 18 13 11 8 5 8 9 14 6 6 3 6 10 6 8 9 10 5 4 6 7 9 7 10 4 5 12 19 26 29 10 21 5 10 16 29 20 17 10 10 12
31 30 21 15 2 7 12 16 18 11 8 6 5 3 1 12 6 3 14 7 4 14 6 6 6 7 6 6 7 19 26 31 9 13 33 30 31 22 20 16 13 7 6 9
35 34 22 16 8 6 10 12 10 8 10 5 2 4 5 10 5 6 5 7 3 6 4 4 7 4 7 6 18 26 26 21 29 29 17 14 12 17 17 15 11 6 6 7
21 13 6 5 4 5 5 2 3 3 5 3 3 1 1 8 5 3 6 5 3 1 5 11 3 4 4 11 20 18 24 24 18 12 14 24 27 27 20 14 8 4 5 8
12 9 7 7 7 5 3 4 4 2 4 2 1 2 2 4 3 3 6 2 2 0 3 5 2 3 3 18 12 17 19 19 22 15 13 19 21 25 23 14 6 2 1 1
14 12 9 6 5 4 4 2 1 5 2 0 2 2 1 3 2 3 3 2 2 2 9 3 2 3 11 12 13 15 16 14 15 17 18 20 20 20 18 16 14 12 8 6
8 2 4 3 3 5 6 5 4 4 4 3 2 2 1 3 2 6 2 1 2 4 2 1 2 1 3 7 11 15 19 22 25 27 28 29 29 28 26 22 18 15 11 7
3 2 7 5 5 7 3 2 2 0 2 3 5 2 2 1 3 2 2 3 3 1 3 4 5 9 13 12 14 19 23 27 29 29 29 28 28 27 25 22 20 17 15 13
6 4 7 8 3 3 5 7 6 6 6 10 4 2 3 2 4 4 5 3 4 5 4 5 14 21 22 18 21 22 23 21 19 18 17 18 19 19 19 19 19 20 22 23
8 8 6 4 3 4 4 5 5 7 10 9 3 2 2 2 2 6 9 5 8 7 5 19 28 29 27 24 23 19 13 9 10 12 14 16 17 18 19 21 23 25 28 31
7 6 13 10 9 5 3 6 4 10 11 4 3 5 2 5 2 5 6 7 1 16 29 34 33 35 33 28 22 14 5 6 11 14 15 15 17 22 25 27 31 37 42 46
Wind_Direction_500mb
319 321 322 324 324 325 328 334 302 297 299 286 242 255 213 194 253 262 246 256 261 271 284 293 289 256 238 187 187 211 202 329 174 229 357 326 234 200 192 205 196 244 340 255
321 322 323 326 326 329 323 298 297 281 277 281 287 292 246 237 237 244 252 277 271 235 270 278 303 297 309 279 224 239 157 204 166 57 295 296 217 199 215 196 80 202 201 250
323 323 324 328 325 323 314 304 299 270 219 259 269 284 288 264 232 260 250 262 282 285 258 249 262 276 302 305 247 254 172 229 253 232 320 142 205 203 205 205 205 193 217 215
320 321 323 326 324 327 316 265 269 288 288 292 303 297 282 281 280 219 235 251 248 270 275 276 254 270 297 228 246 225 229 248 210 106 25 309 289 210 198 212 220 209 242 229
319 322 324 323 321 322 306 262 292 285 286 286 286 291 284 296 298 224 264 235 274 255 267 274 295 292 292 280 191 221 200 219 156 215 177 235 241 231 206 212 228 238 98 282
320 322 322 318 319 320 292 281 293 274 287 294 289 294 298 300 326 277 256 293 300 282 274 283 290 271 276 266 295 212 216 186 170 169 168 203 259 235 201 219 231 231 230 224
322 322 319 314 310 306 291 284 285 267 294 291 293 292 301 297 293 292 292 298 277 324 316 298 262 245 225 252 49 340 275 210 212 96 196 232 34 307 345 226 117 267 267 116
321 319 318 314 310 304 289 281 273 268 285 298 292 309 310 302 288 282 288 284 278 302 312 259 238 197 221 156 46 9 316 177 162 213 209 345 134 52 50 169 146 357 288 241
319 319 316 315 308 301 291 273 273 268 290 291 319 295 292 312 318 295 242 296 296 291 258 280 289 339 356 356 40 5 46 39 320 196 239 215 14 23 43 302 345 352 357 304
320 320 317 313 303 294 276 267 259 263 261 284 285 301 336 314 294 278 286 334 286 241 266 270 271 203 333 333 343 353 14 33 14 286 357 76 19 49 43 91 22 355 330 288
321 320 320 320 321 265 249 257 255 241 258 287 270 282 301 307 289 307 345 305 189 248 248 296 37 294 88 262 30 350 338 331 55 333 227 105 100 168 321 349 327 309 288 231
320 320 324 331 342 320 241 250 268 259 250 275 289 278 277 277 292 303 302 299 294 347 289 53 303 266 252 0 55 174 35 22 7 0 32 12 244 353 322 317 342 342 355 129
316 320 325 329 333 307 282 272 274 295 258 277 263 259 269 270 277 303 293 313 350 329 334 323 356 326 317 8 59 37 65 15 354 296 39 3 12 328 337 304 314 331 346 132
325 323 323 322 315 305 294 279 278 289 276 278 236 259 277 277 288 299 281 279 302 305 294 283 13 358 358 35 35 37 2 317 338 289 28 11 64 23 360 347 320 288 299 271
327 324 319 317 308 307 290 278 281 240 256 326 309 298 286 277 292 303 302 285 289 310 302 312 38 43 301 41 183 54 356 8 354 359 354 326 340 349 338 344 340 317 278 268
330 327 317 312 306 297 278 287 282 248 235 294 287 294 322 330 310 330 337 298 294 285 318 15 73 32 325 14 66 42 10 340 327 292 314 297 296 308 347 343 339 326 295 276
335 343 336 311 280 272 244 310 343 1 211 264 286 279 333 352 352 343 355 15 8 11 7 25 342 21 352 24 56 358 333 322 318 281 339 289 356 321 330 333 335 318 267 253
326 326 335 3 245 266 267 285 297 296 243 268 282 289 336 10 354 339 2 344 9 31 18 20 13 320 16 72 9 337 335 335 335 319 318 299 300 311 321 332 331 314 245 235
321 315 300 288 262 251 260 278 291 268 235 307 269 301 352 355 358 340 346 1 43 11 44 36 317 38 50 358 329 335 342 338 311 331 13 30 31 2 349 336 334 306 268 235
338 350 17 18 310 105 120 321 260 253 244 237 273 269 319 349 341 56 309 24 32 52 29 318 351 86 99 351 337 337 344 346 352 20 15 13 4 3 1 345 324 304 284 242
348 6 14 312 203 303 256 243 249 326 232 352 333 255 315 350 305 41 21 39 9 111 39 338 52 99 50 347 7 10 19 38 45 45 9 351 352 354 0 8 35 23 245 209
326 314 296 260 256 249 258 231 210 230 312 126 273 123 250 303 331 256 21 41 258 115 332 300 109 78 342 9 23 22 26 27 21 22 30 29 28 28 38 59 72 64 62 80
320 229 248 241 199 242 228 204 190 251 179 188 163 186 192 343 61 73 286 222 50 302 307 49 43 112 22 47 46 46 51 58 64 64 61 58 56 59 63 64 62 56 58 72
295 303 272 222 199 242 214 273 6 104 223 196 187 137 318 305 73 2 162 51 290 157 209 192 151 166 142 105 92 93 90 85 80 74 69 64 60 57 54 51 45 37 26 11
240 202 248 227 317 242 251 261 285 243 206 172 159 130 232 62 104 30 126 155 226 233 206 137 155 157 145 135 126 119 109 99 88 75 61 45 35 26 19 12 5 354 344 334
218 226 254 234 273 188 218 226 236 210 183 190 206 176 182 185 105 183 213 196 219 182 182 154 157 156 154 150 145 140 128 100 61 38 23 18 13 10 5 356 347 336 328 322
214 232 226 227 273 279 217 192 210 184 170 228 160 213 200 109 220 239 204 219 132 147 149 156 160 160 158 156 155 153 125 33 13 5 2 6 3 351 341 332 328 324 321 317
Wind_Speed_850mb
64 68 69 71 73 67 67 27 12 25 28 11 12 15 7 7 14 24 23 26 33 31 23 29 24 31 33 14 8 8 13 5 7 16 9 8 29 14 28 14 14 9 6 14
68 69 71 71 65 63 58 19 34 23 18 11 16 23 13 13 14 21 9 10 11 8 18 10 15 23 12 25 12 9 8 8 9 1 2 1 12 14 23 5 5 22 16 11
69 70 73 68 65 65 45 12 9 16 20 26 26 30 25 16 20 24 19 21 24 20 17 20 19 27 16 8 18 25 9 8 11 12 2 6 17 29 26 21 13 16 20 6
68 70 68 67 62 53 33 6 9 14 12 18 28 33 24 33 13 13 8 7 17 22 10 8 17 26 22 8 13 11 8 9 9 3 1 7 4 23 32 31 37 20 23 27
70 72 68 64 55 47 32 11 14 16 35 36 27 29 10 25 25 7 12 20 22 16 16 20 31 34 23 19 11 8 7 4 7 6 4 7 9 18 31 39 37 35 4 8
72 71 66 65 53 44 31 25 34 21 23 24 17 16 11 14 11 16 25 18 18 17 21 17 33 35 25 16 10 12 6 7 8 4 1 4 13 22 26 25 26 32 31 14
72 73 71 62 52 43 39 37 36 21 17 17 25 33 35 35 29 26 31 23 9 8 22 28 17 10 5 0 6 5 4 7 3 5 5 9 5 3 3 25 2 16 12 4
78 71 69 57 51 44 40 36 34 18 15 22 31 28 22 33 26 25 27 35 23 22 15 8 10 8 7 3 7 7 4 6 6 7 10 6 4 5 6 3 3 8 12 9
74 71 64 55 54 51 40 37 34 29 11 6 11 21 31 12 14 15 7 17 17 11 6 5 6 2 5 2 1 2 3 5 3 4 7 4 6 9 9 6 2 12 6 13
74 68 60 59 62 53 37 35 28 25 13 31 14 9 11 10 8 9 9 13 8 10 5 6 4 1 5 2 6 6 3 4 3 1 4 7 8 9 8 2 7 6 6 14
68 62 57 61 63 38 28 25 25 26 15 33 18 16 11 12 7 9 15 14 6 5 7 5 4 4 3 2 2 5 7 6 3 0 3 5 2 2 6 5 3 4 3 8
63 55 50 46 33 7 14 19 21 19 39 17 20 19 18 14 12 11 10 13 12 10 6 2 1 2 2 4 3 2 2 7 6 9 7 2 4 2 6 4 6 10 9 7
53 45 41 33 24 14 16 18 17 23 12 17 13 14 18 15 14 14 8 6 16 12 18 6 4 3 5 3 5 2 5 7 5 6 6 10 11 6 12 16 12 12 9 2
44 38 36 29 25 21 16 14 13 21 9 8 5 12 13 13 13 18 20 31 26 29 14 5 3 4 5 6 4 7 6 11 10 3 7 5 17 21 25 19 13 11 8 5
42 37 34 28 22 18 16 16 20 13 8 10 10 16 12 13 13 14 13 17 21 13 6 3 5 2 3 2 1 6 12 8 8 5 15 12 11 29 28 25 22 14 12 9
42 35 29 23 18 15 9 7 3 11 12 8 6 6 7 6 6 10 9 7 8 7 8 4 3 3 7 3 5 4 9 12 13 12 33 28 25 15 22 23 21 16 12 13
33 29 25 18 13 11 8 5 8 9 14 6 6 3 6 10 6 8 9 10 5 4 6 7 9 7 10 4 5 12 19 26 29 10 21 5 10 16 29 20 17 10 10 12
31 30 21 15 2 7 12 16 18 11 8 6 5 3 1 12 6 3 14 7 4 14 6 6 6 7 6 6 7 19 26 31 9 13 33 30 31 22 20 16 13 7 6 9
35 34 22 16 8 6 10 12 10 8 10 5 2 4 5 10 5 6 5 7 3 6 4 4 7 4 7 6 18 26 26 21 29 29 17 14 12 17 17 15 11 6 6 7
21 13 6 5 4 5 5 2 3 3 5 3 3 1 1 8 5 3 6 5 3 1 5 11 3 4 4 11 20 18 24 24 18 12 14 24 27 27 20 14 8 4 5 8
12 9 7 7 7 5 3 4 4 2 4 2 1 2 2 4 3 3 6 2 2 0 3 5 2 3 3 18 12 17 19 19 22 15 13 19 21 25 23 14 6 2 1 1
14 12 9 6 5 4 4 2 1 5 2 0 2 2 1 3 2 3 3 2 2 2 9 3 2 3 11 12 13 15 16 14 15 17 18 20 20 20 18 16 14 12 8 6
8 2 4 3 3 5 6 5 4 4 4 3 2 2 1 3 2 6 2 1 2 4 2 1 2 1 3 7 11 15 19 22 25 27 28 29 29 28 26 22 18 15 11 7
3 2 7 5 5 7 3 2 2 0 2 3 5 2 2 1 3 2 2 3 3 1 3 4 5 9 13 12 14 19 23 27 29 29 29 28 28 27 25 22 20 17 15 13
6 4 7 8 3 3 5 7 6 6 6 10 4 2 3 2 4 4 5 3 4 5 4 5 14 21 22 18 21 22 23 21 19 18 17 18 19 19 19 19 19 20 22 23
8 8 6 4 3 4 4 5 5 7 10 9 3 2 2 2 2 6 9 5 8 7 5 19 28 29 27 24 23 19 13 9 10 12 14 16 17 18 19 21 23 25 28 31
7 6 13 10 9 5 3 6 4 10 11 4 3 5 2 5 2 5 6 7 1 16 29 34 33 35 33 28 22 14 5 6 11 14 15 15 17 22 25 27 31 37 42 46
Wind_Direction_850mb
319 321 322 324 324 325 328 334 302 297 299 286 242 255 213 194 253 262 246 256 261 271 284 293 289 256 238 187 187 211 202 329 174 229 357 326 234 200 192 205 196 244 340 255
321 322 323 326 326 329 323 298 297 281 277 281 287 292 246 237 237 244 252 277 271 235 270 278 303 297 309 279 224 239 157 204 166 57 295 296 217 199 215 196 80 202 201 250
323 323 324 328 325 323 314 304 299 270 219 259 269 284 288 264 232 260 250 262 282 285 258 249 262 276 302 305 247 254 172 229 253 232 320 142 205 203 205 205 205 193 217 215
320 321 323 326 324 327 316 265 269 288 288 292 303 297 282 281 280 219 235 251 248 270 275 276 254 270 297 228 246 225 229 248 210 106 25 309 289 210 198 212 220 209 242 229
319 322 324 323 321 322 306 262 292 285 286 286 286 291 284 296 298 224 264 235 274 255 267 274 295 292 292 280 191 221 200 219 156 215 177 235 241 231 206 212 228 238 98 282
320 322 322 318 319 320 292 281 293 274 287 294 289 294 298 300 326 277 256 293 300 282 274 283 290 271 276 266 295 212 216 186 170 169 168 203 259 235 201 219 231 231 230 224
322 322 319 314 310 306 291 284 285 267 294 291 293 292 301 297 293 292 292 298 277 324 316 298 262 245 225 252 49 340 275 210 212 96 196 232 34 307 345 226 117 267 267 116
321 319 318 314 310 304 289 281 273 268 285 298 292 309 310 302 288 282 288 284 278 302 312 259 238 197 221 156 46 9 316 177 162 213 209 345 134 52 50 169 146 357 288 241
319 319 316 315 308 301 291 273 273 268 290 291 319 295 292 312 318 295 242 296 296 291 258 280 289 339 356 356 40 5 46 39 320 196 239 215 14 23 43 302 345 352 357 304
320 320 317 313 303 294 276 267 259 263 261 284 285 301 336 314 294 278 286 334 286 241 266 270 271 203 333 333 343 353 14 33 14 286 357 76 19 49 43 91 22 355 330 288
321 320 320 320 321 265 249 257 255 241 258 287 270 282 301 307 289 307 345 305 189 248 248 296 37 294 88 262 30 350 338 331 55 333 227 105 100 168 321 349 327 309 288 231
320 320 324 331 342 320 241 250 268 259 250 275 289 278 277 277 292 303 302 299 294 347 289 53 303 266 252 0 55 174 35 22 7 0 32 12 244 353 322 317 342 342 355 129
316 320 325 329 333 307 282 272 274 295 258 277 263 259 269 270 277 303 293 313 350 329 334 323 356 326 317 8 59 37 65 15 354 296 39 3 12 328 337 304 314 331 346 132
325 323 323 322 315 305 294 279 278 289 276 278 236 259 277 277 288 299 281 279 302 305 294 283 13 358 358 35 35 37 2 317 338 289 28 11 64 23 360 347 320 288 299 271
327 324 319 317 308 307 290 278 281 240 256 326 309 298 286 277 292 303 302 285 289 310 302 312 38 43 301 41 183 54 356 8 354 359 354 326 340 349 338 344 340 317 278 268
330 327 317 312 306 297 278 287 282 248 235 294 287 294 322 330 310 330 337 298 294 285 318 15 73 32 325 14 66 42 10 340 327 292 314 297 296 308 347 343 339 326 295 276
335 343 336 311 280 272 244 310 343 1 211 264 286 279 333 352 352 343 355 15 8 11 7 25 342 21 352 24 56 358 333 322 318 281 339 289 356 321 330 333 335 318 267 253
326 326 335 3 245 266 267 285 297 296 243 268 282 289 336 10 354 339 2 344 9 31 18 20 13 320 16 72 9 337 335 335 335 319 318 299 300 311 321 332 331 314 245 235
321 315 300 288 262 251 260 278 291 268 235 307 269 301 352 355 358 340 346 1 43 11 44 36 317 38 50 358 329 335 342 338 311 331 13 30 31 2 349 336 334 306 268 235
338 350 17 18 310 105 120 321 260 253 244 237 273 269 319 349 341 56 309 24 32 52 29 318 351 86 99 351 337 337 344 346 352 20 15 13 4 3 1 345 324 304 284 242
348 6 14 312 203 303 256 243 249 326 232 352 333 255 315 350 305 41 21 39 9 111 39 338 52 99 50 347 7 10 19 38 45 45 9 351 352 354 0 8 35 23 245 209
326 314 296 260 256 249 258 231 210 230 312 126 273 123 250 303 331 256 21 41 258 115 332 300 109 78 342 9 23 22 26 27 21 22 30 29 28 28 38 59 72 64 62 80
320 229 248 241 199 242 228 204 190 251 179 188 163 186 192 343 61 73 286 222 50 302 307 49 43 112 22 47 46 46 51 58 64 64 61 58 56 59 63 64 62 56 58 72
295 303 272 222 199 242 214 273 6 104 223 196 187 137 318 305 73 2 162 51 290 157 209 192 151 166 142 105 92 93 90 85 80 74 69 64 60 57 54 51 45 37 26 11
240 202 248 227 317 242 251 261 285 243 206 172 159 130 232 62 104 30 126 155 226 233 206 137 155 157 145 135 126 119 109 99 88 75 61 45 35 26 19 12 5 354 344 334
218 226 254 234 273 188 218 226 236 210 183 190 206 176 182 185 105 183 213 196 219 182 182 154 157 156 154 150 145 140 128 100 61 38 23 18 13 10 5 356 347 336 328 322
214 232 226 227 273 279 217 192 210 184 170 228 160 213 200 109 220 239 204 219 132 147 149 156 160 160 158 156 155 153 125 33 13 5 2 6 3 351 341 332 328 324 321 317